Temperature
11 12 12 12 12 12 13 13 13 13 13 13 13 13 13 13 13 14 14 14 14 14 14 14 14 14 14 14 14 14 14 14 14 14 14 14 14 14 14 15 15 15 15
11 11 11 12 12 12 12 12 13 13 13 13 13 13 13 13 13 13 13 13 13 13 13 13 13 13 13 13 14 13 14 14 14 13 13 13 13 14 14 14 14 14 14
11 11 11 11 11 11 12 12 12 12 12 12 12 13 13 13 13 13 13 13 13 13 13 13 13 13 13 13 13 13 13 13 13 13 13 13 13 14 14 14 14 14 14
11 11 11 11 11 11 11 11 11 12 12 12 12 12 12 12 13 13 13 13 13 13 13 13 13 13 13 13 13 13 13 13 13 13 13 13 13 13 13 14 13 14 13
10 10 10 10 10 10 11 11 11 11 11 11 12 12 12 12 12 13 13 12 12 12 13 13 13 13 13 13 13 13 13 14 13 13 13 13 13 13 13 13 13 13 13
11 10 10 10 10 10 10 10 11 11 11 11 11 11 11 12 12 12 12 12 12 12 12 13 13 13 13 13 13 13 13 13 13 13 13 13 13 13 13 13 13 13 12
11 10 10 10 10 10 10 10 10 10 11 11 11 11 11 11 11 12 12 12 12 12 12 13 13 13 13 13 14 14 14 14 14 13 14 13 13 13 13 13 13 13 12
11 10 10 10 10 10 10 10 10 10 10 10 10 10 10 11 11 11 12 11 12 12 12 12 13 13 13 13 13 13 13 13 13 13 13 13 13 13 13 13 13 12 12
11 11 10 10 10 10 10 10 10 10 10 10 10 10 10 10 10 11 11 11 11 12 12 12 12 12 13 13 13 13 13 13 14 14 14 14 14 13 13 13 12 12 12
11 11 10 10 10 10 10 10 10 10 9 9 9 9 9 10 10 10 10 10 11 11 11 12 12 12 13 13 13 13 13 13 13 13 13 13 13 13 13 12 12 12 12
11 11 10 10 10 10 10 10 9 9 9 9 9 9 9 9 9 10 10 10 10 10 11 11 12 12 13 13 13 13 13 13 13 13 13 12 12 12 12 12 12 12 12
11 11 10 10 10 10 10 10 9 9 9 9 9 9 9 9 9 9 10 10 10 10 11 11 11 12 12 13 13 13 13 13 13 12 12 12 12 12 12 12 12 12 12
11 11 10 10 10 10 10 9 9 9 9 9 9 8 9 9 9 9 9 9 10 10 11 11 11 12 12 12 13 13 13 12 12 12 12 12 12 12 12 11 11 11 11
11 11 11 10 10 10 10 9 9 9 9 9 8 8 8 9 9 9 9 9 9 10 10 11 11 11 12 12 12 12 12 12 12 12 12 12 12 11 11 11 10 10 10
11 11 11 10 10 10 10 10 9 9 9 9 8 8 9 9 9 9 9 9 10 10 10 10 11 11 11 11 12 12 12 12 12 12 12 11 11 11 10 10 10 10 10
12 11 11 11 10 10 10 10 10 9 9 9 9 9 9 9 9 9 9 10 10 10 10 10 10 11 11 11 11 12 12 11 11 11 11 11 11 10 10 10 10 10 9
12 12 11 11 11 10 10 10 10 9 9 9 9 9 9 9 9 10 10 10 10 10 10 10 10 11 11 11 11 11 11 11 11 11 11 10 10 10 10 9 9 9 9
12 12 12 11 11 11 11 10 10 10 9 9 9 10 10 10 10 10 10 9 9 10 10 10 10 10 11 11 11 11 11 11 11 11 10 10 10 10 9 9 9 9 8
13 12 12 12 11 11 11 10 10 10 10 9 9 9 10 10 10 10 10 10 9 10 10 10 10 10 10 10 10 10 10 10 10 10 10 10 10 9 9 9 9 9 8
13 13 13 12 12 11 11 11 11 10 10 10 9 9 10 9 9 10 10 10 10 10 10 10 10 10 10 10 10 10 10 10 10 10 10 10 9 9 9 9 8 8 8
13 13 13 13 12 12 11 11 11 11 11 10 10 10 10 10 10 10 10 10 10 10 10 10 10 10 10 10 10 10 10 10 9 9 9 9 9 9 8 8 8 8 8
13 13 13 12 12 12 12 12 11 11 11 10 10 10 10 10 10 10 10 10 11 11 10 10 10 10 10 10 10 10 9 9 9 9 9 9 9 8 8 8 8 8 7
13 13 13 13 13 12 12 12 12 11 11 11 11 10 10 10 10 10 10 11 11 11 11 11 11 11 11 10 10 10 9 9 9 9 8 8 8 8 8 8 8 7 7
13 13 13 13 13 12 12 12 12 12 12 11 11 11 11 11 10 10 11 11 11 11 11 11 11 11 11 11 11 11 10 10 10 9 9 8 8 7 7 8 8 7 7
13 13 13 13 13 13 12 12 12 12 12 12 11 11 11 11 11 11 11 11 11 11 11 11 11 11 11 11 11 11 11 11 10 10 9 8 8 8 7 8 8 8 7
13 13 13 13 13 13 13 12 12 12 12 12 12 11 11 11 11 11 11 11 11 11 11 11 12 12 12 12 12 12 11 11 11 10 10 9 8 8 8 8 8 8 7
Wind_Speed
12 11 11 11 11 11 10 10 9 8 7 7 6 5 4 3 2 1 1 3 4 5 5 5 5 5 5 4 4 4 4 4 3 2 2 2 3 4 4 5 6 7 8
11 11 11 11 12 12 12 11 10 10 9 8 7 7 6 5 4 3 1 1 3 4 4 5 6 5 5 5 5 5 5 5 4 4 3 3 3 3 3 4 4 5 5
11 11 11 12 12 12 12 11 11 10 10 10 9 8 7 6 5 4 3 1 1 2 3 4 4 5 5 4 5 5 4 4 4 4 4 3 3 3 4 4 5 4 6
11 11 11 11 11 11 11 11 11 11 11 11 10 9 8 7 7 5 3 3 2 1 2 2 3 3 4 4 4 5 5 5 5 5 4 4 4 4 5 6 5 5 5
10 11 11 10 10 11 11 11 11 11 11 11 10 10 10 9 9 8 4 3 3 2 1 0 1 1 1 2 3 5 6 5 5 5 5 4 4 4 4 5 6 6 6
10 10 9 9 9 10 10 10 11 11 11 11 10 10 10 10 11 11 7 3 3 2 2 1 1 3 4 4 2 1 2 4 5 5 5 5 5 5 4 5 7 7 4
9 9 9 9 9 9 9 10 10 10 10 10 10 10 10 12 13 11 8 4 4 3 2 1 0 1 3 5 7 6 4 4 2 2 4 5 5 6 6 6 5 5 6
8 9 9 9 8 8 9 9 9 9 9 9 9 10 9 12 15 12 8 4 4 4 3 1 1 1 1 4 8 8 7 6 3 3 5 6 6 5 5 6 8 9 8
7 8 8 8 8 9 9 9 9 8 8 8 9 9 10 11 15 14 9 4 4 4 4 3 1 2 2 1 7 10 10 8 12 16 16 13 13 10 5 6 7 7 6
6 6 7 7 8 8 8 8 8 7 8 7 8 9 9 10 14 15 11 4 4 4 3 4 5 4 2 1 6 9 10 10 10 10 10 10 10 8 3 4 4 5 7
4 4 5 6 7 7 7 7 7 7 7 8 8 8 9 10 12 14 13 5 4 3 3 3 4 5 4 2 1 6 9 10 9 9 8 8 7 7 6 7 5 3 4
3 3 4 5 5 6 6 7 7 7 7 8 8 8 8 9 10 11 12 10 6 4 4 3 5 5 5 4 4 10 9 8 8 8 7 7 7 7 7 9 10 11 10
3 3 3 4 4 5 5 6 6 7 7 7 7 7 7 8 8 10 9 9 8 5 5 7 7 5 5 7 10 9 7 7 8 8 8 7 7 7 7 8 10 12 13
3 2 1 2 3 4 4 5 5 6 7 7 7 8 7 8 9 9 7 5 4 5 6 7 8 8 7 9 8 6 5 5 6 8 8 7 7 6 6 6 6 6 7
4 3 2 1 1 2 3 3 4 5 5 6 7 7 7 8 9 11 8 6 5 4 4 5 5 6 6 6 6 6 6 6 7 7 8 7 6 6 5 4 4 4 6
3 3 2 1 1 1 2 1 2 1 2 3 6 7 6 7 9 9 10 10 8 5 4 7 6 6 6 6 6 6 6 6 6 6 7 6 6 6 5 4 4 5 6
3 3 2 2 2 1 1 2 2 2 5 3 4 6 7 8 9 9 8 7 8 5 7 7 6 6 6 6 6 6 6 6 5 6 6 6 6 6 6 5 5 5 5
3 3 3 3 3 2 1 1 2 3 2 1 3 4 4 6 8 9 8 3 6 7 6 6 6 5 5 5 5 6 6 6 5 6 6 6 6 6 6 5 5 5 5
4 4 4 3 3 3 2 2 1 1 2 2 2 3 3 1 3 5 5 5 5 5 5 5 5 5 5 5 5 5 5 5 5 5 5 5 5 5 5 5 5 4 3
3 2 4 5 5 4 4 3 3 2 1 1 1 2 1 1 2 3 4 4 4 4 4 4 4 4 4 4 4 4 5 5 5 5 5 5 5 5 5 5 5 4 4
3 4 6 6 5 5 4 4 4 3 3 2 1 1 1 1 1 2 2 2 2 2 3 3 3 3 3 2 3 3 4 4 4 4 5 5 5 5 4 4 4 4 4
4 4 4 5 5 5 5 5 5 4 4 4 3 4 5 3 1 1 2 2 2 2 1 1 2 1 1 1 1 2 3 4 4 4 4 5 5 5 4 4 4 4 4
5 5 5 5 5 5 6 6 6 6 5 5 4 4 5 4 4 3 3 3 3 3 3 3 3 2 2 2 2 2 3 3 3 3 4 5 5 5 4 4 5 5 5
6 6 5 5 5 6 6 6 6 6 6 6 6 6 6 5 5 5 5 5 5 5 5 5 5 4 4 4 4 4 3 2 3 4 5 5 5 5 4 4 5 6 6
7 6 6 6 6 6 6 6 6 6 7 7 7 7 7 7 7 6 6 6 7 6 7 7 6 6 7 7 7 6 5 3 3 4 5 5 6 5 5 5 5 6 6
8 7 7 6 6 6 6 6 6 6 6 7 7 7 7 8 8 8 8 8 8 7 8 8 9 9 8 8 8 8 7 7 7 6 6 6 6 6 6 6 7 7 7
Wind_Direction
13 19 23 24 26 28 30 29 28 30 31 37 38 46 54 60 67 86 147 176 182 174 171 175 177 171 177 184 190 191 195 200 201 172 165 186 197 203 183 208 201 198 183
16 23 27 28 30 32 33 31 32 35 34 37 43 42 41 43 48 50 60 174 173 163 161 167 167 168 175 180 184 190 192 194 192 182 175 186 192 186 183 182 182 186 166
22 26 29 34 35 35 34 35 36 37 38 37 40 42 38 35 38 43 47 55 104 141 162 175 176 174 178 186 190 192 193 189 188 190 172 165 170 171 170 163 163 154 140
25 29 32 34 36 37 38 38 39 39 39 38 37 37 36 33 28 28 37 48 54 88 155 163 178 186 188 191 192 191 189 181 184 185 171 165 159 170 177 164 147 130 122
26 30 30 33 36 38 39 39 39 38 40 39 38 37 35 33 25 15 20 34 40 34 39 126 197 200 219 209 203 192 188 183 179 180 169 162 159 166 169 159 140 127 103
27 29 28 30 34 35 36 37 37 37 37 37 35 34 36 32 24 23 12 45 48 35 19 349 219 197 191 183 164 125 175 187 178 175 172 165 153 150 148 148 147 149 123
28 28 27 29 31 31 33 33 32 35 35 33 31 30 32 27 23 26 18 33 59 59 54 36 356 128 183 160 150 150 116 61 14 179 155 145 144 146 152 151 148 128 113
29 30 30 29 30 31 31 30 28 29 32 30 29 28 29 26 20 20 6 46 64 62 62 61 61 114 156 164 160 146 125 105 101 127 116 109 112 128 134 128 119 113 108
33 32 32 31 31 30 29 28 26 26 29 31 30 26 25 25 19 15 0 48 62 65 64 67 68 121 73 243 157 137 121 102 72 71 74 82 71 61 80 129 138 137 124
39 37 36 35 33 30 27 24 24 26 27 30 35 30 28 24 20 16 4 31 52 63 72 84 66 70 91 299 156 143 133 126 122 113 107 111 103 93 41 120 140 141 137
58 52 44 42 38 32 27 24 22 27 28 30 34 33 32 27 21 21 14 22 37 58 72 85 80 74 87 32 94 133 129 133 127 121 113 106 99 91 82 77 72 85 119
97 78 57 47 40 38 35 30 28 25 28 30 30 29 24 26 24 19 22 26 15 62 62 71 80 78 88 75 93 108 122 133 129 127 118 108 100 90 83 80 78 71 70
141 111 78 63 53 41 36 33 32 28 26 26 25 22 20 18 20 20 25 33 29 53 65 66 71 79 107 102 104 123 145 138 135 131 120 109 105 106 101 95 91 86 77
169 153 125 68 58 52 38 30 30 27 21 20 19 15 13 20 16 7 9 35 65 76 86 92 91 82 90 99 121 132 131 125 132 128 122 120 119 118 115 114 113 112 94
185 181 180 108 46 34 42 31 21 38 25 5 7 8 10 12 8 359 4 20 32 51 84 97 98 104 102 104 107 107 114 124 122 126 128 130 129 124 116 110 110 110 109
204 197 202 205 224 330 359 70 148 336 49 32 19 5 32 25 5 13 22 26 27 15 81 89 86 88 95 101 105 105 106 112 120 127 129 133 135 132 127 122 121 119 118
223 209 211 227 233 259 318 350 29 159 175 130 64 39 31 22 20 21 20 26 32 38 82 81 80 81 85 90 96 103 105 110 118 125 130 133 134 135 136 134 131 127 127
231 214 223 225 239 251 279 318 351 3 26 84 119 90 54 38 30 18 354 10 68 64 73 77 78 79 83 91 99 107 113 119 122 126 129 133 139 142 142 141 138 139 140
229 226 226 233 235 242 248 257 272 314 360 22 38 110 116 137 113 31 8 62 74 73 74 76 77 82 87 94 101 111 118 123 126 129 129 135 143 146 145 144 134 131 158
229 221 245 239 235 234 236 244 249 258 284 330 18 34 65 41 57 66 64 68 80 84 83 84 80 81 89 97 108 120 126 127 133 135 136 142 146 150 151 155 156 163 166
239 218 214 239 240 240 241 244 245 245 250 253 240 104 354 349 52 74 83 90 93 101 102 99 95 90 87 99 121 135 141 142 145 147 149 151 154 156 159 162 165 168 164
239 243 242 243 242 241 244 242 241 239 237 236 223 183 188 230 221 198 179 167 158 156 144 152 148 130 123 142 164 173 169 165 163 165 164 162 162 165 169 173 178 179 179
240 247 250 247 245 238 242 241 235 235 234 229 225 217 208 219 220 217 211 200 193 192 189 195 193 184 188 198 211 223 205 184 180 184 181 177 178 178 183 186 189 194 193
235 243 251 254 249 247 243 242 237 234 234 232 226 224 222 220 221 217 212 205 204 205 205 208 213 210 207 208 210 212 211 193 198 200 202 194 191 192 195 196 202 201 196
231 239 247 253 253 249 247 245 242 238 235 234 232 227 223 221 220 216 211 206 207 210 210 212 213 214 215 213 212 208 186 196 225 224 199 203 203 204 208 206 204 200 198
226 235 243 249 252 253 252 250 248 247 244 241 236 232 228 223 221 216 211 207 207 209 210 212 214 214 214 216 213 200 193 203 211 224 223 211 206 208 208 209 205 204 202
Height
1523 1520 1517 1514 1511 1509 1507 1506 1505 1504 1504 1504 1503 1503 1503 1503 1503 1503 1504 1506 1507 1508 1510 1512 1514 1515 1517 1519 1521 1523 1525 1528 1531 1533 1534 1536 1538 1540 1542 1544 1547 1548 1550
1526 1523 1520 1517 1514 1512 1510 1508 1507 1506 1505 1505 1504 1504 1503 1503 1503 1503 1504 1505 1506 1507 1509 1511 1512 1514 1516 1518 1520 1521 1524 1526 1529 1531 1532 1534 1536 1537 1539 1541 1543 1545 1547
1530 1526 1523 1520 1517 1515 1513 1511 1509 1508 1507 1506 1505 1505 1504 1504 1504 1504 1504 1505 1506 1507 1508 1509 1511 1513 1515 1517 1519 1521 1523 1525 1527 1529 1530 1532 1533 1534 1536 1538 1540 1542 1544
1533 1530 1526 1523 1521 1518 1516 1513 1512 1510 1509 1508 1507 1506 1505 1505 1505 1504 1505 1505 1505 1506 1507 1509 1511 1513 1514 1516 1518 1520 1522 1524 1525 1527 1529 1530 1531 1532 1535 1536 1538 1540 1542
1536 1533 1529 1527 1524 1522 1519 1517 1515 1513 1511 1510 1508 1507 1506 1506 1505 1505 1505 1505 1506 1506 1507 1509 1510 1512 1514 1516 1518 1519 1521 1523 1524 1526 1527 1529 1530 1531 1533 1535 1536 1538 1540
1538 1535 1532 1530 1527 1525 1522 1520 1518 1515 1513 1512 1510 1509 1507 1506 1505 1505 1505 1505 1506 1506 1507 1508 1510 1511 1513 1515 1517 1518 1520 1522 1524 1525 1526 1528 1529 1530 1532 1533 1535 1537 1539
1541 1538 1535 1532 1530 1527 1525 1523 1520 1518 1516 1514 1512 1510 1509 1507 1506 1505 1505 1505 1505 1506 1506 1507 1509 1511 1513 1515 1516 1518 1519 1521 1523 1525 1526 1527 1529 1530 1531 1533 1535 1537 1538
1543 1540 1537 1534 1532 1530 1527 1525 1523 1521 1518 1516 1514 1512 1510 1508 1507 1505 1505 1505 1505 1505 1506 1507 1509 1510 1513 1515 1516 1518 1520 1521 1523 1525 1527 1527 1529 1530 1531 1533 1535 1537 1539
1544 1542 1539 1537 1534 1532 1530 1527 1525 1522 1520 1518 1516 1513 1511 1509 1507 1506 1505 1505 1505 1505 1506 1507 1509 1510 1512 1514 1517 1518 1520 1522 1523 1525 1526 1528 1529 1530 1532 1534 1536 1538 1540
1546 1544 1541 1539 1537 1534 1532 1529 1527 1525 1522 1520 1518 1515 1513 1511 1508 1507 1505 1505 1505 1506 1506 1508 1509 1511 1513 1514 1517 1519 1521 1523 1525 1526 1528 1530 1531 1533 1534 1536 1538 1540 1540
1547 1545 1543 1541 1539 1536 1534 1531 1529 1527 1524 1522 1520 1518 1515 1512 1510 1508 1506 1506 1505 1506 1507 1508 1509 1511 1513 1515 1518 1520 1522 1524 1526 1528 1530 1532 1533 1535 1536 1537 1538 1540 1541
1548 1547 1545 1543 1541 1538 1536 1533 1531 1529 1527 1525 1523 1520 1517 1515 1512 1510 1508 1507 1506 1507 1507 1508 1510 1512 1514 1516 1519 1521 1523 1525 1528 1530 1532 1534 1535 1536 1537 1538 1538 1539 1540
1549 1548 1546 1544 1542 1540 1538 1536 1533 1531 1529 1527 1525 1522 1520 1517 1514 1512 1510 1509 1508 1508 1508 1509 1511 1513 1515 1517 1519 1522 1524 1527 1529 1531 1533 1535 1536 1537 1538 1539 1540 1541 1541
1550 1549 1548 1546 1544 1542 1540 1538 1535 1533 1531 1529 1526 1524 1522 1519 1517 1514 1513 1512 1511 1510 1511 1511 1512 1514 1516 1518 1520 1523 1526 1528 1530 1532 1534 1536 1537 1538 1540 1541 1541 1542 1542
1551 1550 1549 1547 1546 1544 1541 1539 1537 1534 1532 1530 1528 1526 1523 1521 1519 1516 1515 1514 1513 1513 1513 1514 1515 1516 1518 1519 1522 1524 1526 1529 1531 1533 1535 1537 1538 1539 1540 1541 1542 1543 1544
1551 1550 1549 1548 1546 1545 1543 1541 1538 1536 1533 1531 1529 1527 1525 1523 1521 1519 1518 1516 1516 1516 1516 1517 1517 1518 1520 1522 1524 1526 1528 1530 1532 1534 1536 1537 1539 1540 1541 1542 1542 1543 1544
1550 1550 1548 1548 1547 1545 1544 1542 1540 1538 1535 1533 1531 1529 1527 1525 1523 1522 1520 1519 1519 1519 1519 1520 1520 1521 1523 1524 1526 1527 1529 1531 1533 1535 1536 1537 1539 1540 1541 1542 1542 1543 1543
1549 1548 1548 1547 1546 1545 1544 1542 1541 1539 1537 1535 1532 1530 1528 1527 1525 1524 1523 1523 1523 1522 1522 1523 1523 1524 1525 1526 1527 1529 1530 1532 1534 1535 1536 1537 1539 1540 1541 1541 1542 1542 1543
1547 1546 1546 1546 1545 1544 1543 1542 1541 1539 1538 1536 1534 1532 1530 1528 1527 1526 1525 1525 1524 1524 1525 1525 1526 1526 1527 1528 1529 1530 1532 1533 1534 1535 1536 1537 1538 1539 1540 1541 1541 1541 1542
1544 1544 1543 1544 1544 1543 1542 1542 1541 1539 1538 1536 1535 1533 1531 1530 1529 1527 1527 1526 1526 1526 1526 1527 1527 1528 1528 1529 1530 1531 1532 1533 1534 1535 1536 1537 1538 1539 1539 1540 1540 1541 1541
1542 1541 1541 1541 1541 1541 1541 1540 1539 1538 1537 1536 1535 1533 1531 1530 1529 1528 1527 1527 1526 1526 1527 1527 1527 1528 1528 1529 1530 1531 1532 1533 1534 1534 1535 1536 1536 1537 1538 1538 1539 1539 1540
1539 1539 1538 1538 1538 1538 1538 1538 1537 1537 1536 1535 1534 1532 1531 1530 1529 1528 1527 1527 1526 1526 1526 1526 1527 1527 1527 1528 1529 1530 1531 1531 1532 1533 1534 1534 1535 1535 1536 1537 1537 1538 1538
1535 1535 1535 1535 1535 1535 1534 1535 1535 1534 1534 1533 1533 1531 1530 1529 1529 1528 1527 1526 1526 1525 1525 1525 1525 1525 1526 1526 1527 1527 1528 1529 1530 1531 1532 1532 1533 1534 1534 1535 1535 1536 1536
1531 1531 1531 1531 1531 1531 1531 1531 1531 1531 1531 1531 1530 1530 1529 1528 1527 1527 1526 1525 1525 1524 1524 1524 1524 1524 1524 1524 1524 1525 1525 1526 1527 1528 1529 1530 1531 1532 1532 1532 1533 1534 1534
1527 1527 1527 1528 1528 1527 1528 1528 1528 1528 1528 1527 1527 1527 1527 1526 1526 1525 1524 1524 1523 1523 1523 1522 1522 1522 1522 1522 1522 1522 1523 1523 1524 1525 1526 1527 1528 1529 1530 1530 1531 1531 1532
1523 1523 1523 1523 1523 1523 1523 1524 1524 1524 1524 1524 1523 1524 1523 1523 1523 1523 1522 1522 1521 1521 1521 1520 1520 1520 1520 1520 1520 1520 1520 1521 1521 1522 1523 1524 1525 1526 1527 1527 1528 1528 1529